Weather History for Bentonville, AR

Change the Weather History Date:

Thursday, June 13, 2013

  Actual Average Record
Temperature  
Mean Temperature 79 °F -  
Max Temperature 87 °F 83 °F 100 °F (1953)
Min Temperature 71 °F 61 °F 48 °F (1985)
Cooling Degree Days 14    
Growing Degree Days 29 (Base 50)    
Moisture  
Dew Point 66 °F    
Average Humidity 65    
Maximum Humidity 83    
Minimum Humidity 40    
Precipitation  
Precipitation 0.00 in - - ()
Sea Level Pressure  
Sea Level Pressure 30.00 in    
Wind  
Wind Speed 5 mph (NNW)    
Max Wind Speed 10 mph    
Max Gust Speed -    
Visibility 10 miles    
Events      
Averages and records for this station are not official NWS values.
T = Trace of Precipitation, MM = Missing Value Source: NWS Daily Summary

Daily Weather History Graph

Daily Weather History Graph

Search for Another Location

Airport:

Trip Planner

Search our weather history database for the weather conditions in past years. The results will help you decide how hot, cold, wet, or windy it might be!

Date:

Astronomy

Jun. 13, 2013 Rise Set
Actual Time 5:58 AM CDT 8:35 PM CDT
Civil Twilight 5:28 AM CDT 9:06 PM CDT
Nautical Twilight 4:50 AM CDT 9:43 PM CDT
Astronomical Twilight 4:08 AM CDT 10:25 PM CDT
Moon 10:29 AM CDT (6/13) 11:50 PM CDT (6/13)
Length of Visible Light 15h 37m
Length of Day
14h 37m
Waxing Crescent, 22% of the Moon is Illuminated
Jun 13
Waxing Crescent
Jun 16
First Quarter
Jun 23
Full
Jun 29
Last Quarter
Jul 8
New

Hourly Weather History & Observations

Time (CDT) Temp. Heat Index Dew Point Humidity Pressure Visibility Wind Dir Wind Speed Gust Speed Precip Events Conditions
12:16 AM 77.0 °F - 69.8 °F 78% 29.96 in 10.0 mi SW 6.9 mph - N/A   Clear
12:35 AM 77.0 °F - 69.8 °F 78% 29.96 in 10.0 mi SW 6.9 mph - N/A   Clear
1:15 AM 75.2 °F - 68.0 °F 78% 29.96 in 10.0 mi SW 5.8 mph - N/A   Clear
1:35 AM 75.2 °F - 68.0 °F 78% 29.97 in 10.0 mi SW 4.6 mph - N/A   Clear
1:55 AM 75.2 °F - 68.0 °F 78% 29.97 in 10.0 mi SW 3.5 mph - N/A   Clear
2:15 AM 75.2 °F - 68.0 °F 78% 29.97 in 10.0 mi SW 3.5 mph - N/A   Clear
2:35 AM 73.4 °F - 68.0 °F 83% 29.97 in 10.0 mi SW 4.6 mph - N/A   Clear
2:55 AM 73.4 °F - 68.0 °F 83% 29.98 in 10.0 mi SW 3.5 mph - N/A   Clear
3:15 AM 73.4 °F - 68.0 °F 83% 29.97 in 10.0 mi Calm Calm - N/A   Clear
3:36 AM 73.4 °F - 66.2 °F 78% 29.97 in 10.0 mi SW 3.5 mph - N/A   Clear
3:55 AM 73.4 °F - 66.2 °F 78% 29.97 in 10.0 mi West 3.5 mph - N/A   Clear
4:15 AM 71.6 °F - 66.2 °F 83% 29.98 in 10.0 mi West 3.5 mph - N/A   Clear
4:35 AM 71.6 °F - 66.2 °F 83% 29.98 in 10.0 mi West 3.5 mph - N/A   Clear
4:55 AM 71.6 °F - 66.2 °F 83% 29.99 in 10.0 mi NW 3.5 mph - N/A   Clear
5:15 AM 71.6 °F - 66.2 °F 83% 30.00 in 10.0 mi West 3.5 mph - N/A   Clear
5:35 AM 73.4 °F - 66.2 °F 78% 30.00 in 10.0 mi WSW 3.5 mph - N/A   Clear
5:55 AM 71.6 °F - 66.2 °F 83% 30.00 in 10.0 mi SW 4.6 mph - N/A   Clear
6:15 AM 71.6 °F - 66.2 °F 83% 30.00 in 10.0 mi SW 5.8 mph - N/A   Clear
6:35 AM 71.6 °F - 66.2 °F 83% 30.01 in 10.0 mi WSW 3.5 mph - N/A   Clear
6:55 AM 73.4 °F - 66.2 °F 78% 30.01 in 10.0 mi Calm Calm - N/A   Clear
7:15 AM 73.4 °F - 68.0 °F 83% 30.02 in 10.0 mi WSW 3.5 mph - N/A   Clear
7:35 AM 73.4 °F - 68.0 °F 83% 30.02 in 10.0 mi Calm Calm - N/A   Clear
7:55 AM 75.2 °F - 69.8 °F 83% 30.02 in 10.0 mi North 6.9 mph - N/A   Mostly Cloudy
8:15 AM 75.2 °F - 69.8 °F 83% 30.03 in 10.0 mi North 6.9 mph - N/A   Mostly Cloudy
8:35 AM 75.2 °F - 68.0 °F 78% 30.03 in 10.0 mi NNE 10.4 mph - N/A   Clear
8:55 AM 77.0 °F - 66.2 °F 69% 30.04 in 10.0 mi North 9.2 mph - N/A   Clear
9:15 AM 77.0 °F - 66.2 °F 69% 30.04 in 10.0 mi North 6.9 mph - N/A   Clear
9:35 AM 78.8 °F - 66.2 °F 65% 30.04 in 10.0 mi NNE 8.1 mph - N/A   Clear
9:55 AM 78.8 °F - 66.2 °F 65% 30.04 in 10.0 mi North 6.9 mph - N/A   Clear
10:15 AM 80.6 °F 82.7 °F 66.2 °F 61% 30.04 in 10.0 mi North 3.5 mph - N/A   Clear
10:36 AM 80.6 °F 82.7 °F 66.2 °F 61% 30.05 in 10.0 mi North 4.6 mph - N/A   Clear
10:55 AM 82.4 °F 84.6 °F 66.2 °F 58% 30.05 in 10.0 mi Calm Calm - N/A   Clear
11:15 AM 82.4 °F 84.6 °F 66.2 °F 58% 30.05 in 10.0 mi Calm Calm - N/A   Clear
11:35 AM 84.2 °F 87.3 °F 68.0 °F 58% 30.05 in 10.0 mi WNW 3.5 mph - N/A   Clear
11:55 AM 84.2 °F 86.6 °F 66.2 °F 55% 30.05 in 10.0 mi NNW 4.6 mph - N/A   Clear
12:15 PM 84.2 °F 87.3 °F 68.0 °F 58% 30.04 in 10.0 mi NW 6.9 mph - N/A   Clear
12:35 PM 86.0 °F 89.4 °F 68.0 °F 55% 30.04 in 10.0 mi NNW 4.6 mph - N/A   Clear
1:15 PM 86.0 °F 89.4 °F 68.0 °F 55% 30.04 in 10.0 mi NW 3.5 mph - N/A   Clear
1:35 PM 86.0 °F 88.2 °F 66.2 °F 51% 30.04 in 10.0 mi North 8.1 mph - N/A   Clear
1:55 PM 86.0 °F 87.3 °F 64.4 °F 48% 30.04 in 10.0 mi North 6.9 mph - N/A   Clear
2:16 PM 86.0 °F 88.2 °F 66.2 °F 51% 30.03 in 10.0 mi North 5.8 mph - N/A   Clear
2:35 PM 87.8 °F 90.4 °F 66.2 °F 49% 30.02 in 10.0 mi NNW 6.9 mph - N/A   Clear
2:55 PM 87.8 °F 88.5 °F 62.6 °F 43% 30.02 in 10.0 mi NNE 6.9 mph - N/A   Clear
3:35 PM 87.8 °F 89.4 °F 64.4 °F 46% 30.00 in 10.0 mi North 6.9 mph - N/A   Clear
3:55 PM 87.8 °F 87.6 °F 60.8 °F 40% 30.00 in 10.0 mi NNW 6.9 mph - N/A   Clear
4:16 PM 87.8 °F 87.6 °F 60.8 °F 40% 30.00 in 10.0 mi NNE 6.9 mph - N/A   Clear
4:35 PM 87.8 °F 89.4 °F 64.4 °F 46% 29.99 in 10.0 mi North 4.6 mph - N/A   Clear
4:55 PM 87.8 °F 89.4 °F 64.4 °F 46% 29.98 in 10.0 mi NNW 4.6 mph - N/A   Clear
5:15 PM 87.8 °F 88.5 °F 62.6 °F 43% 29.98 in 10.0 mi NNW 5.8 mph - N/A   Clear
5:35 PM 87.8 °F 88.5 °F 62.6 °F 43% 29.98 in 10.0 mi NW 4.6 mph - N/A   Clear
5:55 PM 87.8 °F 90.4 °F 66.2 °F 49% 29.98 in 10.0 mi North 6.9 mph - N/A   Clear
6:15 PM 87.8 °F 89.4 °F 64.4 °F 46% 29.98 in 10.0 mi North 6.9 mph - N/A   Clear
6:36 PM 84.2 °F 86.6 °F 66.2 °F 55% 29.98 in 10.0 mi NNE 9.2 mph - N/A   Clear
6:55 PM 84.2 °F 85.6 °F 64.4 °F 51% 29.98 in 10.0 mi NNE 10.4 mph - N/A   Clear
7:15 PM 84.2 °F 86.6 °F 66.2 °F 55% 29.99 in 10.0 mi NNE 10.4 mph - N/A   Clear
7:36 PM 82.4 °F 84.6 °F 66.2 °F 58% 29.99 in 10.0 mi NNE 9.2 mph - N/A   Clear
7:55 PM 82.4 °F 83.9 °F 64.4 °F 54% 29.99 in 10.0 mi NNE 6.9 mph - N/A   Clear
8:15 PM 80.6 °F 82.3 °F 64.4 °F 58% 29.99 in 10.0 mi NNE 9.2 mph - N/A   Clear
8:35 PM 80.6 °F 82.3 °F 64.4 °F 58% 29.98 in 10.0 mi NNE 6.9 mph - N/A   Clear
8:55 PM 78.8 °F - 64.4 °F 61% 29.99 in 10.0 mi NE 6.9 mph - N/A   Clear
9:15 PM 78.8 °F - 64.4 °F 61% 30.00 in 10.0 mi NE 9.2 mph - N/A   Clear
9:35 PM 78.8 °F - 64.4 °F 61% 29.99 in 10.0 mi ENE 9.2 mph - N/A   Clear
9:55 PM 77.0 °F - 64.4 °F 65% 29.99 in 10.0 mi NE 8.1 mph - N/A   Clear
10:15 PM 75.2 °F - 64.4 °F 69% 30.00 in 10.0 mi ENE 8.1 mph - N/A   Clear
10:35 PM 75.2 °F - 64.4 °F 69% 30.00 in 10.0 mi East 6.9 mph - N/A   Clear
10:55 PM 75.2 °F - 64.4 °F 69% 30.01 in 10.0 mi East 4.6 mph - N/A   Clear
11:15 PM 75.2 °F - 64.4 °F 69% 30.01 in 10.0 mi East 6.9 mph - N/A   Clear
11:35 PM 73.4 °F - 64.4 °F 73% 30.01 in 10.0 mi East 4.6 mph - N/A   Clear
11:55 PM 73.4 °F - 64.4 °F 73% 30.01 in 10.0 mi ESE 3.5 mph - N/A   Clear